Regional Weather Roundup
Issued by NWS Columbia, SC

Home | Current Version | Previous Version | Text Only | Print | Product List | Glossary On
Versions: 1 2 3 4 5 6 7 8 9 10 11 12 13 14 15 16 17 18 19 20 21 22 23 24 25 26 27 28 29 30 31 32 33 34 35 36 37 38 39 40 41 42 43 44 45 46 47 48 49 50
000
ASUS42 KCAE 250410
RWRCAE
REGIONAL WEATHER ROUNDUP
NATIONAL WEATHER SERVICE COLUMBIA SC
1200 AM EDT FRI JUL 25 2014

NOTE: "FAIR" INDICATES FEW OR NO CLOUDS BELOW 12,000 FEET WITH NO
SIGNIFICANT WEATHER AND/OR OBSTRUCTIONS TO VISIBILITY.

NOT ALL STATIONS ARE QUALITY CONTROLLED BY THE NATIONAL
WEATHER SERVICE. USE DATA WITH CAUTION...ESPECIALLY
DEWPOINT OBSERVATIONS.

SCZ001>056-GAZ040-063>065-077-250500-
...UPSTATE SOUTH CAROLINA...

CITY           SKY/WX    TMP DP  RH WIND       PRES   REMARKS
ANDERSON       MOCLDY    75  71  87 CALM      29.97R
LIBERTY        FAIR      73  32  22 CALM      29.98R
SPARTANBURG    FAIR      77  72  83 NE5       29.97R
CLEMSON        PTCLDY    75  71  87 S5        29.98R
GREENVILLE     MOCLDY    77  67  71 NE8       29.99R
GREENWOOD      PTCLDY    75  70  84 CALM      29.97R
GREER          MOCLDY    77  68  73 NE6       29.97R
ROCK HILL      CLOUDY    73  70  90 CALM      29.98R
CHESTER        CLOUDY    77  73  88 CALM      29.97R
LAURENS        FAIR      77  77 100 SW3       29.97R


...CENTRAL SOUTH CAROLINA...

CITY           SKY/WX    TMP DP  RH WIND       PRES   REMARKS
COLUMBIA APT   PTCLDY    80  71  74 CALM      29.93R
COLUMBIA OWENS CLEAR     80  70  71 CALM      29.95R
DARLINGTON     MOCLDY    75  72  88 SW3       29.95S
FLORENCE       MOCLDY    75  72  90 CALM      29.93R
MCENTIRE ANGB  CLEAR     76  72  88 CALM      29.94R
ORANGEBURG     PTCLDY    79  71  76 S5        29.94S
SUMTER SHAW    CLEAR     76  76  99 S2        29.92R
NEWBERRY       FAIR      75  75 100 CALM      29.98R
AIKEN          FAIR      77  77 100 CALM      29.98S
BARNWELL       FAIR      79  72  78 W3        29.95S
MANNING        FAIR      79  79 100 CALM      29.94R
CAMDEN         FAIR      75  72  88 CALM      29.95R
LANCASTER      LGT RAIN  72  72 100 CALM      29.96R
WINNSBORO      FAIR      77  72  83 W3        29.95R


...EASTERN AND COASTAL SOUTH CAROLINA...

CITY           SKY/WX    TMP DP  RH WIND       PRES   REMARKS
MYRTLE BEACH   MOCLDY    75  70  83 W6        29.94F
N MYRTLE BCH   LGT RAIN  75  71  87 VRB5      29.93S
CONWAY         TSTM      72  72 100 W16G29    29.95F
MARION         FAIR      72  70  94 N5        29.94R
HARTSVILLE     CLOUDY    75 N/A N/A CALM      29.97R
FLORENCE       MOCLDY    75  72  90 CALM      29.93R
DARLINGTON     MOCLDY    75  72  88 SW3       29.95S
CHARLESTON APT PTCLDY    84  78  82 SW7       29.95R HX  95
MOUNT PLEASANT FAIR      84  79  84 SW7       29.95R HX  96
WALTERBORO     PTCLDY    81  72  74 CALM      29.95S
BEAUFORT       CLEAR     83  78  85 W5        29.96R


...EASTERN GEORGIA...

CITY           SKY/WX    TMP DP  RH WIND       PRES   REMARKS
AUGUSTA BUSH F CLEAR     79  71  76 SW6       29.93F
AUGUSTA DANIEL CLEAR     80  71  74 CALM      29.96S
THOMSON        PTCLDY    77  77 100 CALM      30.00R
WASHINGTON     FAIR      77  77 100 CALM      29.97R
CLAXTON        FAIR      81  77  89 CALM      29.98R
SYLVANIA       CLEAR     78  76  94 CALM      29.97R
STATESBORO     CLEAR     82  72  72 W5        29.97R
SAVANNAH       MOCLDY    82  71  69 SW8       29.98R


...SOUTHERN NORTH CAROLINA...

CITY           SKY/WX    TMP DP  RH WIND       PRES   REMARKS
CHARLOTTE      MOCLDY    71  68  90 N5        29.98R
MONROE         PTCLDY    73  69  87 NE10      29.96R
WADESBORO      CLOUDY    74  68  80 N7        29.95R
ROCKINGHAM       N/A     75  70  83 NE6       29.95R
RUTHERFORDTON  CLOUDY    73  67  81 CALM      30.00R
ASHEVILLE      MOCLDY    68  66  93 N3        30.06S

$$



USA.gov is the U.S. government's official web portal to all federal, state and local government web resources and services.